This demonstration page uses our WeatherBlox Daily Observations layout. Learn more.

Left ArrowRight Arrow

Hourly Observations for January 16, 2017

Temp ( °F °C ) Dew Point ( °F °C ) Humidity (%) Winds ( mph kmh ) Pressure ( in mb ) Visibility ( mi km ) Precip ( " mm )
12:58 am 00:58 Cloudy with Light Freezing Drizzle 32 0 32 0 100 100 Calm 30.16 1022 3 5 0.00 0.03
1:58 am 01:58 Cloudy with Light Freezing Drizzle 32 0 32 0 100 100 N 3 6 30.15 1021 7 11 0.00 0.03
2:58 am 02:58 Cloudy with Mist and Fog 32 0.1 32 0.1 100 100 NE 5 7 30.14 1021 6 10 0.00 0.00
3:32 am 03:32 Cloudy with Light Rain 32 0 32 0 100 100 ENE 5 7 30.15 1021 7 11 0.00 0.00
3:42 am 03:42 Cloudy 32 0 32 0 100 100 ENE 5 7 30.15 1021 7 11 0.00 0.00
3:48 am 03:48 Cloudy 32 0 32 0 100 100 ENE 5 7 30.15 1021 7 11 0.00 0.00
3:52 am 03:52 Cloudy with Light Rain 32 0 32 0 100 100 NE 5 7 30.15 1021 7 11 0.00 0.00
3:58 am 03:58 Cloudy with Light Rain 32 0.2 32 0.2 100 100 NE 6 9 30.11 1020 7 11 0.00 0.03
4:17 am 04:17 Cloudy with Light Rain 32 0 32 0 100 100 ENE 6 9 30.12 1020 6 10 0.00 0.00
4:58 am 04:58 Cloudy with Light Rain 32 0.2 32 0.2 100 100 NE 7 11 30.08 1019 7 11 0.00 0.03
5:58 am 05:58 Cloudy with Drizzle 32 0 32 0 100 100 NE 8 13 30.05 1018 5 8 0.00 0.03
6:48 am 06:48 Cloudy with Light Rain 32 0 32 0 100 100 NE 8 13 30.06 1018 5 8 0.00 0.00
6:58 am 06:58 Cloudy with Drizzle 33 0.3 33 0.3 100 100 NE 9 15 30.03 1017 6 10 0.00 0.03
7:34 am 07:34 Cloudy with Light Rain 32 0 32 0 100 100 NE 8 13 30.03 1017 4 6 0.00 0.00
7:58 am 07:58 Cloudy with Rain 33 0.3 33 0.3 100 100 NE 9 15 30.01 1016 3 4 0.04 1.02
8:58 am 08:58 Cloudy with Rain 33 0.3 33 0.3 100 100 NE 6 9 30.01 1016 3 5 0.12 3.05
9:58 am 09:58 Cloudy with Rain 33 0.3 33 0.3 100 100 NE 6 9 30.00 1016 4 6 0.12 3.05
10:58 am 10:58 Cloudy with Light Rain 33 0.4 33 0.4 100 100 NE 6 9 29.99 1016 5 8 0.10 2.54
11:11 am 11:11 Cloudy 32 0 32 0 100 100 NNE 6 9 30.00 1016 10 16 0.00 0.00
11:22 am 11:22 Cloudy with Light Rain 32 0 32 0 100 100 NNE 6 9 30.00 1016 5 8 0.00 0.00
11:58 am 11:58 Cloudy with Light Rain 33 0.6 33 0.6 100 100 NNE 7 11 29.96 1015 5 8 0.00 0.03
12:38 pm 12:38 Cloudy 34 1 34 1 100 100 NNE 6 9 29.94 1014 10 16 0.00 0.00
12:48 pm 12:48 Cloudy with Light Rain 32 0 32 0 100 100 NNE 6 9 29.97 1015 10 16 0.00 0.00
12:58 pm 12:58 Cloudy with Light Rain 34 1 34 1 100 100 N 7 11 29.93 1014 5 8 0.03 0.76
1:20 pm 13:20 Cloudy with Light Rain 34 1 34 1 100 100 N 7 11 29.91 1013 3 5 0.00 0.00
1:38 pm 13:38 Cloudy with Light Rain 34 1 34 1 100 100 N 8 13 29.91 1013 8 13 0.00 0.00
1:58 pm 13:58 Cloudy with Light Rain 34 1.1 34 1.1 100 100 N 7 11 29.92 1013 8 13 0.02 0.51
2:08 pm 14:08 Cloudy 34 1 34 1 100 100 N 6 9 29.91 1013 7 11 0.00 0.00
2:58 pm 14:58 Cloudy with Light Rain 34 1 34 1 100 100 N 8 13 29.91 1013 5 8 0.01 0.25
3:58 pm 15:58 Cloudy 35 1.5 35 1.5 100 100 NNE 7 11 29.92 1013 5 8 0.00 0.03
4:13 pm 16:13 Cloudy 34 1 34 1 100 100 N 7 11 29.91 1013 10 16 0.00 0.00
4:58 pm 16:58 Cloudy 34 1.2 34 1.2 100 100 N 7 11 29.93 1014 10 16 0.00 0.00
5:19 pm 17:19 Cloudy with Mist and Fog 34 1 34 1 100 100 N 8 13 29.94 1014 5 8 0.00 0.00
5:28 pm 17:28 Cloudy with Mist and Fog 34 1 34 1 100 100 N 7 11 29.94 1014 5 8 0.00 0.00
5:58 pm 17:58 Cloudy with Mist and Fog 34 1 34 1 100 100 N 7 11 29.95 1014 5 8 0.00 0.00
6:42 pm 18:42 Cloudy with Drizzle 32 0 32 0 100 100 NNW 9 15 29.97 1015 5 8 0.00 0.00
6:58 pm 18:58 Cloudy with Drizzle 34 0.9 34 0.9 100 100 NNW 10 17 29.96 1015 5 8 0.00 0.03
7:19 pm 19:19 Cloudy with Drizzle 32 0 32 0 100 100 N 9 15 29.97 1015 5 8 0.00 0.00
7:58 pm 19:58 Cloudy with Mist and Fog 34 0.9 34 0.9 100 100 NNW 7 11 29.97 1015 5 8 0.00 0.03
8:04 pm 20:04 Cloudy with Mist and Fog 32 0 32 0 100 100 NNW 8 13 30.00 1016 5 8 0.00 0.00
8:58 pm 20:58 Cloudy with Mist and Fog 34 0.9 34 0.9 100 100 N 9 15 29.98 1015 5 8 0.00 0.00
9:37 pm 21:37 Cloudy with Mist and Fog 34 1 34 1 100 100 NW 8 13 29.97 1015 5 8 0.00 0.00
9:58 pm 21:58 Cloudy 34 1 34 1 100 100 NNW 8 13 29.99 1016 10 16 0.00 0.00
10:01 pm 22:01 Cloudy 34 1 34 1 100 100 NNW 8 13 29.97 1015 10 16 0.00 0.00
10:55 pm 22:55 Cloudy 32 0 32 0 100 100 NW 8 13 30.00 1016 10 16 0.00 0.00
10:58 pm 22:58 Cloudy 33 0.8 33 0.8 100 100 NW 9 15 29.99 1016 10 16 0.00 0.00
11:47 pm 23:47 Cloudy 32 0 32 0 100 100 NW 7 11 30.00 1016 10 16 0.00 0.00
11:58 pm 23:58 Cloudy 34 0.9 34 0.9 100 100 NW 13 20 29.99 1016 10 16 0.00 0.00

Powered by AerisWeather